Regional Weather Roundup
Issued by NWS

Home | Current Version | Previous Version | Text Only | Print | Product List | Glossary Off
Versions: 1 2 3 4 5 6 7 8 9 10 11 12 13 14 15 16 17 18 19 20 21 22 23 24 25 26 27 28 29 30 31 32 33 34 35 36 37 38 39 40 41 42 43 44 45 46 47 48 49 50

000
ASUS43 KBIS 140810
RWRND

NORTH DAKOTA REGIONAL WEATHER ROUNDUP
NATIONAL WEATHER SERVICE BISMARCK ND
300 AM CDT MON JUL 14 2014

NOTE: "FAIR" INDICATES FEW OR NO CLOUDS BELOW 12,000 FEET WITH NO
SIGNIFICANT WEATHER AND/OR OBSTRUCTIONS TO VISIBILITY.


NDZ001>003-009>011-017-140900-
NORTHWEST NORTH DAKOTA

CITY           SKY/WX    TMP DP  RH WIND       PRES   REMARKS
WILLISTON      CLEAR     51  45  79 N3        30.23R
MINOT          CLEAR     52  45  77 NW10      30.15R
MINOT AFB      CLEAR     51  48  87 NW9       30.15R
$$

NDZ018>021-031>035-040>046-140900-
SOUTHWEST NORTH DAKOTA

CITY           SKY/WX    TMP DP  RH WIND       PRES   REMARKS
BISMARCK       CLEAR     57  47  69 N8        30.14R
DICKINSON      CLEAR     45  41  86 NW8       30.19S
GARRISON         N/A     52  47  83 N8        30.16R
HETTINGER ARPT CLEAR     46  41  82 NW7       30.21R
$$

NDZ004>008-012>016-024-026-027-054-140900-
NORTHEAST NORTH DAKOTA

CITY           SKY/WX    TMP DP  RH WIND       PRES   REMARKS
GRAND FORKS    PTCLDY    50  47  89 N15       29.99R
GRND FRKS AFB  MOCLDY    52  50  93 N16       30.01R
DEVILS LAKE    CLOUDY    54  46  76 N18       30.05R
$$

NDZ022-023-025-028>030-036>039-047>053-140900-
SOUTHEAST NORTH DAKOTA

CITY           SKY/WX    TMP DP  RH WIND       PRES   REMARKS
FARGO          CLOUDY    56  49  77 NW14      29.98R
JAMESTOWN      MOCLDY    57  45  64 NW18G25   30.04R
$$




USA.gov is the U.S. government's official web portal to all federal, state and local government web resources and services.